TimeEDT,TemperatureF,Dew PointF,Humidity,Sea Level PressureIn,VisibilityMPH,Wind Direction,Wind SpeedMPH,Gust SpeedMPH,PrecipitationIn,Events,Conditions,WindDirDegrees,DateUTC
12:15 AM,71.6,69.8,94,30.05,10.0,Calm,Calm,-,N/A,,Clear,0,2013-05-21 04:15:00
12:35 AM,71.6,69.8,94,30.05,10.0,Calm,Calm,-,N/A,,Clear,0,2013-05-21 04:35:00
12:55 AM,71.6,69.8,94,30.05,10.0,Calm,Calm,-,N/A,,Clear,0,2013-05-21 04:55:00
1:15 AM,71.6,69.8,94,30.04,10.0,Calm,Calm,-,N/A,,Scattered Clouds,0,2013-05-21 05:15:00
1:35 AM,71.6,69.8,94,30.04,8.0,Calm,Calm,-,N/A,,Partly Cloudy,0,2013-05-21 05:35:00
1:55 AM,69.8,69.8,100,30.03,8.0,Calm,Calm,-,N/A,,Clear,0,2013-05-21 05:55:00
2:15 AM,69.8,69.8,100,30.03,7.0,Calm,Calm,-,N/A,,Scattered Clouds,0,2013-05-21 06:15:00
2:35 AM,69.8,69.8,100,30.03,7.0,Calm,Calm,-,N/A,,Overcast,0,2013-05-21 06:35:00
2:55 AM,71.6,69.8,94,30.03,6.0,Calm,Calm,-,N/A,,Overcast,0,2013-05-21 06:55:00
3:15 AM,71.6,69.8,94,30.03,7.0,Calm,Calm,-,N/A,,Overcast,0,2013-05-21 07:15:00
3:35 AM,71.6,69.8,94,30.03,8.0,Calm,Calm,-,N/A,,Overcast,0,2013-05-21 07:35:00
3:55 AM,71.6,69.8,94,30.03,8.0,Calm,Calm,-,N/A,,Overcast,0,2013-05-21 07:55:00
4:15 AM,71.6,69.8,94,30.03,10.0,Calm,Calm,-,N/A,,Overcast,0,2013-05-21 08:15:00
4:35 AM,71.6,69.8,94,30.04,8.0,Calm,Calm,-,N/A,,Overcast,0,2013-05-21 08:35:00
4:55 AM,71.6,69.8,94,30.04,8.0,Calm,Calm,-,N/A,,Overcast,0,2013-05-21 08:55:00
5:15 AM,71.6,69.8,94,30.04,9.0,Calm,Calm,-,N/A,,Overcast,0,2013-05-21 09:15:00
5:35 AM,69.8,69.8,100,30.05,7.0,Calm,Calm,-,N/A,,Overcast,0,2013-05-21 09:35:00
5:55 AM,69.8,69.8,100,30.05,5.0,Calm,Calm,-,N/A,,Overcast,0,2013-05-21 09:55:00
6:15 AM,69.8,69.8,100,30.05,4.0,Calm,Calm,-,N/A,,Overcast,0,2013-05-21 10:15:00
6:35 AM,69.8,69.8,100,30.05,3.0,Calm,Calm,-,N/A,,Overcast,0,2013-05-21 10:35:00
6:55 AM,69.8,69.8,100,30.05,3.0,Calm,Calm,-,N/A,,Overcast,0,2013-05-21 10:55:00
7:15 AM,69.8,69.8,100,30.05,5.0,Calm,Calm,-,N/A,,Overcast,0,2013-05-21 11:15:00
7:35 AM,69.8,69.8,100,30.05,5.0,Calm,Calm,-,N/A,,Overcast,0,2013-05-21 11:35:00
7:55 AM,71.6,69.8,94,30.06,5.0,Calm,Calm,-,N/A,,Overcast,0,2013-05-21 11:55:00
8:15 AM,71.6,69.8,94,30.06,7.0,Calm,Calm,-,N/A,,Overcast,0,2013-05-21 12:15:00
8:35 AM,71.6,69.8,94,30.07,5.0,Calm,Calm,-,N/A,,Overcast,0,2013-05-21 12:35:00
8:55 AM,71.6,69.8,94,30.07,8.0,Calm,Calm,-,N/A,,Overcast,0,2013-05-21 12:55:00
9:15 AM,73.4,69.8,88,30.08,9.0,Calm,Calm,-,N/A,,Overcast,0,2013-05-21 13:15:00
9:35 AM,73.4,69.8,88,30.08,10.0,Calm,Calm,-,N/A,,Overcast,0,2013-05-21 13:35:00
10:15 AM,77.0,69.8,78,30.07,10.0,Calm,Calm,-,N/A,,Overcast,0,2013-05-21 14:15:00
10:35 AM,77.0,69.8,78,30.08,10.0,Calm,Calm,-,N/A,,Mostly Cloudy,0,2013-05-21 14:35:00
10:55 AM,78.8,69.8,74,30.08,10.0,Calm,Calm,-,N/A,,Mostly Cloudy,0,2013-05-21 14:55:00
11:15 AM,78.8,69.8,74,30.08,10.0,Calm,Calm,-,N/A,,Mostly Cloudy,0,2013-05-21 15:15:00
11:35 AM,80.6,69.8,70,30.08,10.0,Calm,Calm,-,N/A,,Scattered Clouds,0,2013-05-21 15:35:00
11:55 AM,82.4,69.8,66,30.07,10.0,Calm,Calm,-,N/A,,Scattered Clouds,0,2013-05-21 15:55:00
12:15 PM,82.4,69.8,66,30.07,10.0,Calm,Calm,-,N/A,,Mostly Cloudy,0,2013-05-21 16:15:00
12:35 PM,84.2,69.8,62,30.06,10.0,East,5.8,-,N/A,,Mostly Cloudy,100,2013-05-21 16:35:00
12:55 PM,82.4,69.8,66,30.06,10.0,SE,5.8,-,N/A,,Mostly Cloudy,130,2013-05-21 16:55:00
1:15 PM,82.4,69.8,66,30.05,10.0,SSE,4.6,-,N/A,,Mostly Cloudy,160,2013-05-21 17:15:00
1:35 PM,84.2,69.8,62,30.03,10.0,Calm,Calm,-,N/A,,Scattered Clouds,0,2013-05-21 17:35:00
1:55 PM,86.0,68.0,55,30.02,10.0,SSE,5.8,-,N/A,,Scattered Clouds,150,2013-05-21 17:55:00
2:15 PM,86.0,68.0,55,30.01,10.0,SE,4.6,-,N/A,,Partly Cloudy,130,2013-05-21 18:15:00
2:35 PM,84.2,68.0,58,30.01,10.0,SSW,4.6,-,N/A,,Mostly Cloudy,200,2013-05-21 18:35:00
2:55 PM,86.0,66.2,51,30.00,10.0,SSW,4.6,-,N/A,Thunderstorm,Mostly Cloudy,210,2013-05-21 18:55:00
3:15 PM,80.6,68.0,65,30.00,10.0,West,11.5,16.1,N/A,Thunderstorm,Thunderstorm,260,2013-05-21 19:15:00
3:35 PM,71.6,66.2,83,30.02,1.8,NNE,13.8,23.0,0.02,Rain-Thunderstorm,Heavy Thunderstorms and Rain,20,2013-05-21 19:35:00
3:55 PM,68.0,64.4,88,30.03,1.2,North,11.5,27.6,0.30,Rain-Thunderstorm,Heavy Thunderstorms and Rain,10,2013-05-21 19:55:00
4:15 PM,68.0,64.4,88,30.01,3.0,SSE,5.8,-,0.09,Rain-Thunderstorm,Light Thunderstorms and Rain,150,2013-05-21 20:15:00
4:35 PM,68.0,64.4,88,30.01,9.0,Calm,Calm,-,0.10,Thunderstorm,Unknown,0,2013-05-21 20:35:00
4:55 PM,68.0,66.2,94,30.01,5.0,Calm,Calm,-,0.10,Rain-Thunderstorm,Light Thunderstorms and Rain,0,2013-05-21 20:55:00
5:15 PM,66.2,66.2,100,30.00,10.0,Calm,Calm,-,N/A,,Light Drizzle,0,2013-05-21 21:15:00
5:35 PM,68.0,66.2,94,30.01,8.0,Calm,Calm,-,N/A,Thunderstorm,Light Drizzle,0,2013-05-21 21:35:00
5:55 PM,68.0,66.2,94,30.03,4.0,Calm,Calm,-,N/A,Rain-Thunderstorm,Rain,0,2013-05-21 21:55:00
6:15 PM,66.2,66.2,100,30.03,5.0,Calm,Calm,-,0.01,Rain-Thunderstorm,Rain,0,2013-05-21 22:15:00
6:35 PM,66.2,66.2,100,30.02,5.0,Calm,Calm,-,0.04,Rain-Thunderstorm,Rain,0,2013-05-21 22:35:00
6:55 PM,66.2,66.2,100,29.99,6.0,Calm,Calm,-,0.05,Rain,Light Rain,0,2013-05-21 22:55:00
7:15 PM,68.0,66.2,94,29.98,8.0,Calm,Calm,-,N/A,Rain,Light Rain,0,2013-05-21 23:15:00
7:35 PM,68.0,66.2,94,29.98,9.0,Calm,Calm,-,N/A,,Light Drizzle,0,2013-05-21 23:35:00
7:55 PM,68.0,66.2,94,29.97,10.0,Calm,Calm,-,N/A,,Partly Cloudy,0,2013-05-21 23:55:00
8:15 PM,68.0,66.2,94,29.97,9.0,Calm,Calm,-,N/A,,Clear,0,2013-05-22 00:15:00
8:35 PM,68.0,66.2,94,29.98,10.0,Calm,Calm,-,N/A,,Clear,0,2013-05-22 00:35:00
8:55 PM,68.0,66.2,94,29.99,10.0,Calm,Calm,-,N/A,,Clear,0,2013-05-22 00:55:00
9:15 PM,68.0,66.2,94,29.98,10.0,Calm,Calm,-,N/A,,Clear,0,2013-05-22 01:15:00
9:35 PM,68.0,66.2,94,29.99,10.0,Calm,Calm,-,N/A,,Clear,0,2013-05-22 01:35:00
9:55 PM,66.2,66.2,100,30.00,8.0,Calm,Calm,-,N/A,,Clear,0,2013-05-22 01:55:00
10:15 PM,66.2,66.2,100,30.01,6.0,Calm,Calm,-,N/A,,Clear,0,2013-05-22 02:15:00
10:35 PM,66.2,64.4,94,30.02,5.0,Calm,Calm,-,N/A,,Clear,0,2013-05-22 02:35:00
10:55 PM,66.2,66.2,100,30.02,7.0,Calm,Calm,-,N/A,,Clear,0,2013-05-22 02:55:00
11:15 PM,66.2,66.2,100,30.02,6.0,Calm,Calm,-,N/A,,Clear,0,2013-05-22 03:15:00
11:35 PM,66.2,66.2,100,30.02,7.0,Calm,Calm,-,N/A,,Clear,0,2013-05-22 03:35:00
11:55 PM,66.2,66.2,100,30.02,10.0,Calm,Calm,-,N/A,,Clear,0,2013-05-22 03:55:00